[[{"header":{"parameterUnit":"m.s-1","parameterCategory":1,"la1":30.2991,"la2":30.254,"lo1":-89.0895,"lo2":-89.0444,"dy":0.0017,"dx":0.0017,"nx":28,"ny":28,"refTime":"2025-03-25T09:00:00:Z","depth":0,"parameterNumber":2,"parameterNumberName":"U-component_of_WINDS"},"data":[0,0,0,0,0,0,0,0,0,0,0,0,0,0,0,0,0,0,0,0,0,0,0,0,0,0,0,0,0,0,0,0,0,0,0,0,0,0,0,0,0,0,0,0,0,0,0,0,0,0,0,0,0,0,0,0,0,0,-0.8633,-0.8631,0,-0.8497,-0.8495,-0.8494,-0.8441,-0.8441,-0.8442,-0.8442,-0.8301,-0.8297,-0.8293,0,0,0,0,0,0,0,0,0,0,0,0,0,-0.8846,-0.8842,-0.8633,-0.8631,-0.8629,-0.8497,-0.8495,-0.8493,-0.8441,-0.8441,-0.8442,-0.8442,-0.8303,-0.8298,-0.8293,0,0,0,0,0,0,0,0,0,0,0,0,0,-0.8736,-0.8841,-0.8633,-0.8587,-0.8582,-0.8498,-0.8495,-0.8493,-0.8441,-0.8441,-0.8442,-0.8442,-0.8304,-0.8298,-0.8292,-0.8243,0,0,-0.8274,-0.8271,0,0,0,0,0,0,0,0,-0.8742,-0.8728,-0.8596,-0.859,-0.8584,-0.8486,-0.8519,-0.8409,-0.8441,-0.8494,-0.8442,-0.8443,-0.8362,-0.8352,-0.8325,-0.8237,-0.8231,-0.8273,-0.8269,-0.8267,-0.8265,0,0,0,0,0,0,0,-0.875,-0.8734,-0.8579,-0.8594,-0.8587,-0.8573,-0.8558,-0.8498,-0.8427,-0.849,-0.8485,-0.847,-0.8359,-0.8331,-0.8321,-0.8228,-0.8273,-0.8268,-0.8264,-0.8262,-0.8095,-0.8094,0,0,0,0,0,0,-0.8766,-0.8741,-0.8583,-0.8575,-0.8666,-0.8569,-0.8552,-0.8517,-0.8427,-0.8414,-0.847,-0.8468,-0.8341,-0.8328,-0.8316,-0.8253,-0.8267,-0.8261,-0.8257,-0.8095,-0.8095,-0.8094,0,0,0,0,0,0,-0.877,-0.8752,-0.8589,-0.8657,-0.8635,-0.8565,-0.8526,-0.8514,-0.8486,-0.8412,-0.8399,-0.8454,-0.8341,-0.8325,-0.8262,-0.8248,-0.8258,-0.8253,-0.8096,-0.8095,-0.8094,-0.8127,0,0,0,0,0,0,-0.8777,-0.8754,-0.8734,-0.8657,-0.8631,-0.8537,-0.8525,-0.8511,-0.8475,-0.8472,-0.8394,-0.8381,-0.834,-0.8272,-0.8256,-0.8239,-0.8248,-0.8097,-0.8096,-0.8094,-0.8127,-0.8127,-0.8128,0,0,0,0,0,-0.8784,-0.8748,-0.8734,-0.8715,-0.8606,-0.8536,-0.8522,-0.8476,-0.8474,-0.8454,-0.8408,-0.8384,-0.8252,-0.8266,-0.8248,-0.8229,-0.8098,-0.8096,-0.8095,-0.8127,-0.8127,-0.8128,0,0,0,0,0,0,-0.8825,-0.8737,-0.872,-0.8658,-0.8605,-0.8528,-0.8501,-0.8477,-0.8423,-0.8422,-0.8367,-0.835,-0.8292,-0.8254,-0.8271,-0.8177,-0.8173,-0.8168,-0.8204,-0.8204,-0.8204,-0.8214,-0.8243,0,0,0,0,0,-0.8827,-0.8779,-0.8704,-0.8657,-0.8631,-0.8571,-0.8539,-0.8508,-0.8451,-0.8428,-0.8377,-0.8322,-0.8268,-0.8234,-0.818,-0.8122,-0.8104,-0.81,-0.81,-0.8101,-0.8097,-0.8064,-0.8062,-0.8088,-0.8088,-0.8088,0,0,-0.883,-0.8776,-0.8749,-0.8664,-0.8619,-0.857,-0.8552,-0.8501,-0.8464,-0.842,-0.8358,-0.8319,-0.8254,-0.8194,-0.8165,-0.8161,-0.8086,-0.8099,-0.81,-0.8095,-0.8062,-0.806,-0.8058,-0.8087,-0.8087,-0.8087,0,0,-0.8811,-0.8765,-0.8721,-0.8677,-0.8611,-0.8571,-0.8561,-0.8487,-0.846,-0.8397,-0.8364,-0.8319,-0.8228,-0.8183,-0.8149,-0.8116,-0.8092,-0.81,-0.8101,-0.807,-0.8068,-0.8065,-0.8054,-0.8051,-0.8096,-0.8096,-0.8096,0,-0.8823,-0.8748,-0.8701,-0.8652,-0.8616,-0.8575,-0.8531,-0.849,-0.841,-0.8386,-0.8383,-0.8268,-0.8221,-0.8151,-0.8143,-0.8116,-0.8103,-0.8108,-0.8072,-0.8069,-0.8066,-0.8055,-0.8051,-0.8098,-0.8097,-0.8097,-0.8097,0,-0.8767,-0.8716,-0.8688,-0.8612,-0.8573,-0.8526,-0.8472,-0.8438,-0.8412,-0.8373,-0.831,-0.8253,-0.8188,-0.8169,-0.8142,-0.8095,-0.8095,-0.8083,-0.8077,-0.8066,-0.8055,-0.805,-0.81,-0.8099,-0.8099,-0.8098,0,0,-0.8767,-0.8668,-0.8659,-0.8625,-0.8549,-0.8509,-0.8461,-0.8398,-0.8371,-0.8317,-0.8275,-0.82,-0.8189,-0.815,-0.8118,-0.809,-0.8069,-0.8081,-0.8079,-0.8081,-0.8015,-0.8024,-0.802,-0.8053,-0.8052,-0.8051,-0.802,0,-0.8738,-0.8651,-0.8608,-0.854,-0.8492,-0.8454,-0.8413,-0.8362,-0.8325,-0.828,-0.8238,-0.8186,-0.8175,-0.8151,-0.8123,-0.8078,-0.8055,-0.8079,-0.8014,-0.8012,-0.8031,-0.8014,-0.8023,-0.7996,-0.8015,-0.8014,-0.8014,0,-0.8692,-0.864,-0.8567,-0.8499,-0.8478,-0.8441,-0.8381,-0.8338,-0.8281,-0.8255,-0.8213,-0.8182,-0.8131,-0.8131,-0.8059,-0.8077,-0.8048,-0.8022,-0.802,-0.8012,-0.8012,-0.8005,-0.7986,-0.7983,-0.8006,-0.8007,-0.8007,0,-0.87,-0.8612,-0.8557,-0.8529,-0.8449,-0.8424,-0.8389,-0.8332,-0.8298,-0.8246,-0.8223,-0.8165,-0.8133,-0.809,-0.8044,-0.8048,-0.7978,-0.7973,-0.7955,-0.7957,-0.7941,-0.7943,-0.7918,-0.7924,-0.7924,-0.7924,-0.7924,0,-0.8672,-0.8629,-0.8561,-0.8527,-0.8478,-0.843,-0.8383,-0.8345,-0.8295,-0.8254,-0.8217,-0.8179,-0.8121,-0.8076,-0.804,-0.7987,-0.7973,-0.7952,-0.7943,-0.7955,-0.7958,-0.7934,-0.7935,-0.7923,-0.7923,-0.7923,-0.7923,0,-0.8673,-0.8625,-0.8563,-0.8493,-0.8474,-0.8441,-0.8381,-0.8347,-0.8309,-0.8257,-0.8242,-0.8182,-0.8127,-0.8078,-0.8004,-0.798,-0.7927,-0.7915,-0.7946,-0.7941,-0.7927,-0.7929,-0.7886,-0.7878,-0.7889,-0.7889,-0.7889,0,-0.8658,-0.8624,-0.855,-0.8521,-0.8487,-0.8439,-0.8404,-0.8356,-0.8321,-0.8255,-0.8229,-0.8172,-0.8123,-0.8038,-0.7987,-0.7932,-0.7919,-0.7907,-0.791,-0.7924,-0.7919,-0.7921,-0.7918,-0.7908,-0.7908,-0.7908,-0.7908,0,-0.8636,-0.8615,-0.8566,-0.851,-0.847,-0.8424,-0.8376,-0.8353,-0.8296,-0.8259,-0.8203,-0.8166,-0.8092,-0.8036,-0.7975,-0.7939,-0.7914,-0.7908,-0.7901,-0.7913,-0.7932,-0.7922,-0.7947,-0.7909,-0.7909,-0.7909,-0.7909,-0.7909,-0.8628,-0.8597,-0.8541,-0.8489,-0.8448,-0.8405,-0.837,-0.8329,-0.8281,-0.8218,-0.8193,-0.8136,-0.8081,-0.7997,-0.7961,-0.7916,-0.7911,-0.7901,-0.7898,-0.7897,-0.7899,-0.794,-0.7905,-0.7905,-0.7905,-0.7905,-0.7905,0,-0.8605,-0.8568,-0.852,-0.8455,-0.8415,-0.8396,-0.8343,-0.831,-0.8261,-0.8212,-0.8165,-0.8102,-0.8048,-0.7994,-0.7937,-0.7912,-0.7899,-0.7899,-0.79,-0.7892,-0.7906,-0.7918,-0.791,-0.791,-0.791,-0.791,-0.791,-0.791,-0.8588,-0.8535,-0.8507,-0.8434,-0.8397,-0.8342,-0.8313,-0.8273,-0.8234,-0.8165,-0.812,-0.8086,-0.8035,-0.7975,-0.7925,-0.791,-0.7891,-0.7894,-0.7877,-0.7891,-0.7891,-0.7891,-0.7902,-0.789,-0.789,-0.7866,-0.7865,-0.7865]},{"header":{"parameterUnit":"m.s-1","parameterCategory":1,"la1":30.2991,"la2":30.254,"lo1":-89.0895,"lo2":-89.0444,"dy":0.0017,"dx":0.0017,"nx":28,"ny":28,"refTime":"2025-03-25T09:00:00:Z","depth":0,"parameterNumber":3,"parameterNumberName":"V-component_of_WINDS"},"data":[0,0,0,0,0,0,0,0,0,0,0,0,0,0,0,0,0,0,0,0,0,0,0,0,0,0,0,0,0,0,0,0,0,0,0,0,0,0,0,0,0,0,0,0,0,0,0,0,0,0,0,0,0,0,0,0,0,0,0.3753,0.3754,0,0.3776,0.3776,0.3776,0.3714,0.3712,0.371,0.3709,0.3732,0.3734,0.3737,0,0,0,0,0,0,0,0,0,0,0,0,0,0.3655,0.3658,0.3753,0.3754,0.3754,0.3776,0.3776,0.3777,0.3715,0.3712,0.371,0.3708,0.3731,0.3734,0.3737,0,0,0,0,0,0,0,0,0,0,0,0,0,0.369,0.3658,0.3753,0.3726,0.3723,0.3776,0.3776,0.3777,0.3715,0.3712,0.3709,0.3707,0.373,0.3734,0.3737,0.3818,0,0,0.3748,0.375,0,0,0,0,0,0,0,0,0.3688,0.3694,0.3729,0.3728,0.3725,0.3739,0.375,0.379,0.3716,0.3718,0.3708,0.3705,0.3737,0.374,0.375,0.3819,0.382,0.3749,0.3751,0.3752,0.3753,0,0,0,0,0,0,0,0.3686,0.3692,0.3762,0.373,0.3727,0.3712,0.3713,0.3758,0.3743,0.3718,0.3713,0.3717,0.3735,0.3747,0.375,0.382,0.3749,0.3752,0.3754,0.3755,0.3952,0.3955,0,0,0,0,0,0,0.3687,0.3691,0.3761,0.3763,0.3699,0.3716,0.3718,0.3738,0.3743,0.3741,0.3719,0.3714,0.3742,0.3746,0.3751,0.3841,0.3752,0.3756,0.3758,0.3949,0.3953,0.3956,0,0,0,0,0,0,0.3685,0.3694,0.3761,0.3726,0.3733,0.3721,0.3743,0.374,0.3751,0.3744,0.3741,0.3734,0.374,0.3746,0.3801,0.3842,0.3757,0.3761,0.3945,0.395,0.3954,0.4026,0,0,0,0,0,0,0.3683,0.3694,0.3724,0.3727,0.3735,0.381,0.3746,0.3742,0.3758,0.3751,0.3757,0.3755,0.3738,0.3796,0.3804,0.3845,0.3764,0.3941,0.3947,0.3953,0.402,0.4032,0.4043,0,0,0,0,0,0.3679,0.3744,0.3726,0.3735,0.3773,0.3813,0.3817,0.3796,0.3761,0.3791,0.3786,0.3755,0.3837,0.3802,0.3811,0.3854,0.3939,0.3946,0.3952,0.4014,0.403,0.4043,0,0,0,0,0,0,0.3747,0.3744,0.3724,0.3792,0.3803,0.3802,0.3839,0.3814,0.3835,0.3828,0.3802,0.3804,0.3862,0.3864,0.3825,0.393,0.3882,0.3891,0.3926,0.394,0.3952,0.3948,0.3767,0,0,0,0,0,0.377,0.3803,0.3799,0.3859,0.3866,0.3852,0.3869,0.3851,0.3862,0.3866,0.3865,0.3877,0.3904,0.3923,0.3949,0.4021,0.402,0.4055,0.4067,0.4077,0.4083,0.4118,0.4132,0.3978,0.3978,0.3978,0,0,0.3818,0.382,0.3842,0.3873,0.3879,0.3912,0.3856,0.3895,0.3918,0.3872,0.3922,0.3923,0.3933,0.3996,0.4024,0.4,0.4126,0.4085,0.4093,0.4094,0.4126,0.4141,0.4154,0.3983,0.3982,0.3981,0,0,0.392,0.3927,0.3975,0.3983,0.3994,0.3984,0.3996,0.3999,0.3997,0.4048,0.4012,0.4041,0.4091,0.4099,0.4109,0.4214,0.4185,0.4224,0.4283,0.4317,0.4329,0.434,0.4373,0.4386,0.4232,0.4232,0.4232,0,0.3977,0.4026,0.4004,0.4044,0.4057,0.4017,0.4065,0.4074,0.4093,0.4102,0.4075,0.4134,0.414,0.4202,0.4227,0.4239,0.4249,0.4221,0.433,0.434,0.4349,0.4381,0.4394,0.4236,0.4236,0.4235,0.4235,0,0.4093,0.4128,0.4166,0.4183,0.4202,0.4246,0.423,0.4251,0.4233,0.4226,0.4277,0.4282,0.4305,0.432,0.4304,0.438,0.4363,0.4334,0.4284,0.4369,0.4397,0.4409,0.4242,0.4241,0.4239,0.4238,0,0,0.4236,0.4241,0.4255,0.426,0.427,0.4295,0.4338,0.4361,0.4377,0.4393,0.4425,0.4468,0.444,0.4452,0.4436,0.4467,0.4544,0.4433,0.4432,0.4449,0.4624,0.4643,0.4657,0.4527,0.4529,0.4531,0.4621,0,0.4333,0.4403,0.4384,0.4454,0.4484,0.4447,0.4483,0.4492,0.4488,0.4512,0.4507,0.4535,0.4499,0.4505,0.4534,0.4529,0.4578,0.4523,0.4554,0.4555,0.4547,0.4673,0.4693,0.4778,0.4633,0.4635,0.4637,0,0.4454,0.4472,0.4544,0.4546,0.4557,0.459,0.4608,0.4634,0.4643,0.4637,0.465,0.4628,0.4668,0.4622,0.4675,0.4638,0.465,0.465,0.4652,0.4651,0.4598,0.467,0.4805,0.4816,0.4655,0.4653,0.4652,0,0.4544,0.4587,0.4635,0.4642,0.4647,0.467,0.4673,0.4679,0.4694,0.4711,0.4719,0.4742,0.4753,0.477,0.4754,0.4722,0.4808,0.4762,0.4802,0.4802,0.4818,0.4816,0.4952,0.4835,0.4834,0.4834,0.4834,0,0.4651,0.4696,0.4675,0.4704,0.4752,0.4732,0.478,0.4779,0.4785,0.4812,0.4784,0.481,0.479,0.4814,0.4803,0.4846,0.4853,0.4848,0.4843,0.4847,0.4847,0.4851,0.4843,0.4838,0.4837,0.4836,0.4836,0,0.4758,0.4747,0.4795,0.4796,0.4797,0.4832,0.4832,0.4858,0.4852,0.4887,0.4894,0.4884,0.4911,0.4898,0.4927,0.4919,0.4974,0.4964,0.497,0.4965,0.5005,0.5,0.5144,0.5161,0.5037,0.5038,0.5039,0,0.4824,0.4857,0.4861,0.4877,0.4881,0.4908,0.4922,0.4904,0.492,0.4932,0.4957,0.4981,0.4999,0.5044,0.5039,0.506,0.5048,0.5097,0.505,0.5053,0.5043,0.5039,0.504,0.5105,0.5106,0.5108,0.5109,0,0.4942,0.4934,0.4956,0.4975,0.4992,0.5007,0.5019,0.5034,0.5016,0.5035,0.5062,0.5076,0.5105,0.5128,0.5147,0.515,0.5125,0.5124,0.5133,0.5136,0.5136,0.5132,0.499,0.5119,0.5118,0.5118,0.5117,0.5117,0.5027,0.5053,0.5059,0.5083,0.5091,0.5102,0.5126,0.5122,0.5144,0.5165,0.5154,0.5185,0.5192,0.5214,0.522,0.5243,0.5223,0.5239,0.5242,0.5244,0.5247,0.5137,0.5247,0.5247,0.5247,0.5246,0.5246,0,0.5138,0.514,0.5163,0.518,0.5199,0.5176,0.5188,0.5205,0.5232,0.5241,0.526,0.5289,0.5312,0.531,0.533,0.5349,0.5338,0.5355,0.535,0.5351,0.5266,0.5253,0.5363,0.5363,0.5363,0.5363,0.5363,0.5363,0.5198,0.524,0.5234,0.5279,0.5281,0.531,0.5318,0.5328,0.5335,0.5369,0.5388,0.5386,0.539,0.541,0.543,0.5428,0.5435,0.5455,0.5449,0.5369,0.5357,0.5346,0.5333,0.5458,0.5458,0.5531,0.5531,0.5532]}]]